Time,TemperatureF,DewpointF,PressureIn,WindDirection,WindDirectionDegrees,WindSpeedMPH,WindSpeedGustMPH,Humidity,HourlyPrecipIn,Conditions,Clouds,dailyrainin,SoftwareType,DateUTC
2013-05-18 00:04:00,56.5,53.9,29.85,N/A,-737280,0.0,-999.0,91,0.00,,,0.88,Wunderground v.1.15,2013-05-18 05:04:00,
2013-05-18 00:09:00,56.5,53.9,29.85,N/A,-737280,0.0,-999.0,91,0.00,,,0.88,Wunderground v.1.15,2013-05-18 05:09:00,
2013-05-18 00:14:00,56.5,53.9,29.85,N/A,-737280,0.0,-999.0,91,0.00,,,0.88,Wunderground v.1.15,2013-05-18 05:14:00,
2013-05-18 00:19:00,56.5,53.9,29.85,N/A,-737280,0.0,-999.0,91,0.00,,,0.88,Wunderground v.1.15,2013-05-18 05:19:00,
2013-05-18 00:24:00,56.5,53.9,29.84,N/A,-737280,0.0,-999.0,91,0.00,,,0.88,Wunderground v.1.15,2013-05-18 05:24:00,
2013-05-18 00:29:00,56.5,53.9,29.84,N/A,-737280,0.0,-999.0,91,0.00,,,0.88,Wunderground v.1.15,2013-05-18 05:29:00,
2013-05-18 00:34:00,56.5,53.9,29.84,N/A,-737280,0.0,-999.0,91,0.00,,,0.88,Wunderground v.1.15,2013-05-18 05:34:00,
2013-05-18 00:39:00,56.4,53.8,29.85,N/A,-737280,0.0,-999.0,91,0.00,,,0.88,Wunderground v.1.15,2013-05-18 05:39:00,
2013-05-18 00:44:00,56.4,53.8,29.85,N/A,-737280,0.0,-999.0,91,0.00,,,0.88,Wunderground v.1.15,2013-05-18 05:44:00,
2013-05-18 00:49:00,56.4,53.8,29.85,N/A,-737280,0.0,-999.0,91,0.00,,,0.88,Wunderground v.1.15,2013-05-18 05:49:00,
2013-05-18 00:54:00,56.3,53.7,29.84,N/A,-737280,0.0,-999.0,91,0.00,,,0.88,Wunderground v.1.15,2013-05-18 05:54:00,
2013-05-18 00:59:00,56.3,53.7,29.84,N/A,-737280,0.0,-999.0,91,0.00,,,0.88,Wunderground v.1.15,2013-05-18 05:59:00,
2013-05-18 01:04:00,56.3,53.7,29.84,N/A,-737280,0.0,-999.0,91,0.00,,,0.88,Wunderground v.1.15,2013-05-18 06:04:00,
2013-05-18 01:09:00,56.2,53.6,29.84,N/A,-737280,0.0,-999.0,91,0.00,,,0.88,Wunderground v.1.15,2013-05-18 06:09:00,
2013-05-18 01:14:00,56.2,53.6,29.84,N/A,-737280,0.0,-999.0,91,0.00,,,0.88,Wunderground v.1.15,2013-05-18 06:14:00,
2013-05-18 01:19:00,56.2,53.6,29.84,N/A,-737280,0.0,-999.0,91,0.00,,,0.88,Wunderground v.1.15,2013-05-18 06:19:00,
2013-05-18 01:24:00,56.1,53.5,29.84,N/A,-737280,0.0,-999.0,91,0.00,,,0.88,Wunderground v.1.15,2013-05-18 06:24:00,
2013-05-18 01:29:00,56.1,53.5,29.84,N/A,-737280,0.0,-999.0,91,0.00,,,0.88,Wunderground v.1.15,2013-05-18 06:29:00,
2013-05-18 01:34:00,56.1,53.5,29.84,N/A,-737280,0.0,-999.0,91,0.00,,,0.88,Wunderground v.1.15,2013-05-18 06:34:00,
2013-05-18 01:39:00,56.0,53.4,29.84,N/A,-737280,0.0,-999.0,91,0.00,,,0.88,Wunderground v.1.15,2013-05-18 06:39:00,
2013-05-18 01:44:00,56.0,53.4,29.84,N/A,-737280,0.0,-999.0,91,0.00,,,0.88,Wunderground v.1.15,2013-05-18 06:44:00,
2013-05-18 01:49:00,56.0,53.4,29.84,N/A,-737280,0.0,-999.0,91,0.00,,,0.88,Wunderground v.1.15,2013-05-18 06:49:00,
2013-05-18 01:54:00,55.9,53.3,29.83,N/A,-737280,0.0,-999.0,91,0.00,,,0.88,Wunderground v.1.15,2013-05-18 06:54:00,
2013-05-18 01:59:00,55.9,53.3,29.83,N/A,-737280,0.0,-999.0,91,0.00,,,0.88,Wunderground v.1.15,2013-05-18 06:59:00,
2013-05-18 02:04:00,55.9,53.3,29.83,N/A,-737280,0.0,-999.0,91,0.00,,,0.88,Wunderground v.1.15,2013-05-18 07:04:00,
2013-05-18 02:09:00,55.7,53.4,29.83,N/A,-737280,0.0,-999.0,92,0.00,,,0.88,Wunderground v.1.15,2013-05-18 07:09:00,
2013-05-18 02:14:00,55.7,53.4,29.83,N/A,-737280,0.0,-999.0,92,0.00,,,0.88,Wunderground v.1.15,2013-05-18 07:14:00,
2013-05-18 02:19:00,55.7,53.4,29.83,N/A,-737280,0.0,-999.0,92,0.00,,,0.88,Wunderground v.1.15,2013-05-18 07:19:00,
2013-05-18 02:24:00,55.7,53.4,29.83,N/A,-737280,0.0,-999.0,92,0.00,,,0.88,Wunderground v.1.15,2013-05-18 07:24:00,
2013-05-18 02:29:00,55.7,53.4,29.83,N/A,-737280,0.0,-999.0,92,0.00,,,0.88,Wunderground v.1.15,2013-05-18 07:29:00,
2013-05-18 02:34:00,55.7,53.4,29.83,N/A,-737280,0.0,-999.0,92,0.00,,,0.88,Wunderground v.1.15,2013-05-18 07:34:00,
2013-05-18 02:39:00,55.7,53.4,29.83,N/A,-737280,0.0,-999.0,92,0.00,,,0.88,Wunderground v.1.15,2013-05-18 07:39:00,
2013-05-18 02:44:00,55.7,53.4,29.83,N/A,-737280,0.0,-999.0,92,0.00,,,0.88,Wunderground v.1.15,2013-05-18 07:44:00,
2013-05-18 02:49:00,55.7,53.4,29.83,N/A,-737280,0.0,-999.0,92,0.00,,,0.88,Wunderground v.1.15,2013-05-18 07:49:00,
2013-05-18 02:54:00,55.8,53.2,29.83,N/A,-737280,0.0,-999.0,91,0.00,,,0.88,Wunderground v.1.15,2013-05-18 07:54:00,
2013-05-18 02:59:00,55.8,53.2,29.83,N/A,-737280,0.0,-999.0,91,0.00,,,0.88,Wunderground v.1.15,2013-05-18 07:59:00,
2013-05-18 03:04:00,55.8,53.2,29.83,N/A,-737280,0.0,-999.0,91,0.00,,,0.88,Wunderground v.1.15,2013-05-18 08:04:00,
2013-05-18 03:09:00,55.9,53.3,29.82,N/A,-737280,0.0,-999.0,91,0.00,,,0.88,Wunderground v.1.15,2013-05-18 08:09:00,
2013-05-18 03:14:00,55.9,53.3,29.82,N/A,-737280,0.0,-999.0,91,0.00,,,0.88,Wunderground v.1.15,2013-05-18 08:14:00,
2013-05-18 03:19:00,55.9,53.3,29.82,N/A,-737280,0.0,-999.0,91,0.00,,,0.88,Wunderground v.1.15,2013-05-18 08:19:00,
2013-05-18 03:24:00,56.0,53.4,29.82,N/A,-737280,0.0,-999.0,91,0.00,,,0.88,Wunderground v.1.15,2013-05-18 08:24:00,
2013-05-18 03:29:00,56.0,53.4,29.82,N/A,-737280,0.0,-999.0,91,0.00,,,0.88,Wunderground v.1.15,2013-05-18 08:29:00,
2013-05-18 03:34:00,56.0,53.4,29.82,N/A,-737280,0.0,-999.0,91,0.00,,,0.88,Wunderground v.1.15,2013-05-18 08:34:00,
2013-05-18 03:39:00,56.2,53.6,29.82,N/A,-737280,0.0,-999.0,91,0.00,,,0.88,Wunderground v.1.15,2013-05-18 08:39:00,
2013-05-18 03:44:00,56.2,53.6,29.82,N/A,-737280,0.0,-999.0,91,0.00,,,0.88,Wunderground v.1.15,2013-05-18 08:44:00,
2013-05-18 03:49:00,56.2,53.6,29.82,N/A,-737280,0.0,-999.0,91,0.00,,,0.88,Wunderground v.1.15,2013-05-18 08:49:00,
2013-05-18 03:54:00,56.3,53.7,29.82,N/A,-737280,0.0,-999.0,91,0.00,,,0.88,Wunderground v.1.15,2013-05-18 08:54:00,
2013-05-18 03:59:00,56.3,53.7,29.82,N/A,-737280,0.0,-999.0,91,0.00,,,0.88,Wunderground v.1.15,2013-05-18 08:59:00,
2013-05-18 04:04:00,56.3,53.7,29.82,N/A,-737280,0.0,-999.0,91,0.00,,,0.88,Wunderground v.1.15,2013-05-18 09:04:00,
2013-05-18 04:09:00,56.5,53.6,29.82,N/A,-737280,0.0,-999.0,90,0.00,,,0.88,Wunderground v.1.15,2013-05-18 09:09:00,
2013-05-18 04:14:00,56.5,53.6,29.82,N/A,-737280,0.0,-999.0,90,0.00,,,0.88,Wunderground v.1.15,2013-05-18 09:14:00,
2013-05-18 04:19:00,56.5,53.6,29.82,N/A,-737280,0.0,-999.0,90,0.00,,,0.88,Wunderground v.1.15,2013-05-18 09:19:00,
2013-05-18 04:24:00,56.6,53.7,29.82,N/A,-737280,0.0,-999.0,90,0.00,,,0.88,Wunderground v.1.15,2013-05-18 09:24:00,
2013-05-18 04:29:00,56.6,53.7,29.82,N/A,-737280,0.0,-999.0,90,0.00,,,0.88,Wunderground v.1.15,2013-05-18 09:29:00,
2013-05-18 04:34:00,56.6,53.7,29.82,N/A,-737280,0.0,-999.0,90,0.00,,,0.88,Wunderground v.1.15,2013-05-18 09:34:00,
2013-05-18 04:39:00,56.6,53.7,29.82,N/A,-737280,0.0,-999.0,90,0.00,,,0.88,Wunderground v.1.15,2013-05-18 09:39:00,
2013-05-18 04:44:00,56.6,53.7,29.82,N/A,-737280,0.0,-999.0,90,0.00,,,0.88,Wunderground v.1.15,2013-05-18 09:44:00,
2013-05-18 04:49:00,56.6,53.7,29.82,N/A,-737280,0.0,-999.0,90,0.00,,,0.88,Wunderground v.1.15,2013-05-18 09:49:00,
2013-05-18 04:54:00,56.8,53.6,29.82,N/A,-737280,0.0,-999.0,89,0.00,,,0.88,Wunderground v.1.15,2013-05-18 09:54:00,
2013-05-18 04:59:00,56.8,53.6,29.82,N/A,-737280,0.0,-999.0,89,0.00,,,0.88,Wunderground v.1.15,2013-05-18 09:59:00,
2013-05-18 05:04:00,56.8,53.6,29.82,N/A,-737280,0.0,-999.0,89,0.00,,,0.88,Wunderground v.1.15,2013-05-18 10:04:00,
2013-05-18 05:09:00,56.9,53.7,29.84,N/A,-737280,0.0,-999.0,89,0.00,,,0.88,Wunderground v.1.15,2013-05-18 10:09:00,
2013-05-18 05:14:00,56.9,53.7,29.84,N/A,-737280,0.0,-999.0,89,0.00,,,0.88,Wunderground v.1.15,2013-05-18 10:14:00,
2013-05-18 05:19:00,56.9,53.7,29.84,N/A,-737280,0.0,-999.0,89,0.00,,,0.88,Wunderground v.1.15,2013-05-18 10:19:00,
2013-05-18 05:24:00,56.9,54.0,29.85,N/A,-737280,0.0,-999.0,90,0.00,,,0.88,Wunderground v.1.15,2013-05-18 10:24:00,
2013-05-18 05:29:00,56.9,54.0,29.85,N/A,-737280,0.0,-999.0,90,0.00,,,0.88,Wunderground v.1.15,2013-05-18 10:29:00,
2013-05-18 05:34:00,56.9,54.0,29.85,N/A,-737280,0.0,-999.0,90,0.00,,,0.88,Wunderground v.1.15,2013-05-18 10:34:00,
2013-05-18 05:39:00,56.9,54.0,29.85,N/A,-737280,0.0,-999.0,90,0.01,,,0.88,Wunderground v.1.15,2013-05-18 10:39:00,
2013-05-18 05:44:00,56.9,54.0,29.85,N/A,-737280,0.0,-999.0,90,0.01,,,0.88,Wunderground v.1.15,2013-05-18 10:44:00,
2013-05-18 05:49:00,56.9,54.0,29.85,N/A,-737280,0.0,-999.0,90,0.01,,,0.88,Wunderground v.1.15,2013-05-18 10:49:00,
2013-05-18 05:54:00,56.7,54.1,29.86,N/A,-737280,0.0,-999.0,91,0.01,,,0.88,Wunderground v.1.15,2013-05-18 10:54:00,
2013-05-18 05:59:00,56.7,54.1,29.86,N/A,-737280,0.0,-999.0,91,0.01,,,0.88,Wunderground v.1.15,2013-05-18 10:59:00,
2013-05-18 06:04:00,56.7,54.1,29.86,N/A,-737280,0.0,-999.0,91,0.01,,,0.88,Wunderground v.1.15,2013-05-18 11:04:00,
2013-05-18 06:09:00,56.7,54.1,29.86,N/A,-737280,0.0,-999.0,91,0.01,,,0.88,Wunderground v.1.15,2013-05-18 11:09:00,
2013-05-18 06:14:00,56.7,54.1,29.86,N/A,-737280,0.0,-999.0,91,0.01,,,0.88,Wunderground v.1.15,2013-05-18 11:14:00,
2013-05-18 06:19:00,56.7,54.1,29.86,N/A,-737280,0.0,-999.0,91,0.01,,,0.88,Wunderground v.1.15,2013-05-18 11:19:00,
2013-05-18 06:24:00,56.6,54.0,29.86,N/A,-737280,0.0,-999.0,91,0.02,,,0.88,Wunderground v.1.15,2013-05-18 11:24:00,
2013-05-18 06:29:00,56.6,54.0,29.86,N/A,-737280,0.0,-999.0,91,0.02,,,0.88,Wunderground v.1.15,2013-05-18 11:29:00,
2013-05-18 06:34:00,56.6,54.0,29.86,N/A,-737280,0.0,-999.0,91,0.02,,,0.88,Wunderground v.1.15,2013-05-18 11:34:00,
2013-05-18 06:39:00,56.5,54.2,29.88,N/A,-737280,0.0,-999.0,92,0.01,,,0.88,Wunderground v.1.15,2013-05-18 11:39:00,
2013-05-18 06:44:00,56.5,54.2,29.88,N/A,-737280,0.0,-999.0,92,0.01,,,0.88,Wunderground v.1.15,2013-05-18 11:44:00,
2013-05-18 06:49:00,56.5,54.2,29.88,N/A,-737280,0.0,-999.0,92,0.01,,,0.88,Wunderground v.1.15,2013-05-18 11:49:00,
2013-05-18 06:54:00,56.3,54.0,29.88,N/A,-737280,0.0,-999.0,92,0.02,,,0.88,Wunderground v.1.15,2013-05-18 11:54:00,
2013-05-18 06:59:00,56.3,54.0,29.88,N/A,-737280,0.0,-999.0,92,0.02,,,0.88,Wunderground v.1.15,2013-05-18 11:59:00,
2013-05-18 07:04:00,56.3,54.0,29.88,N/A,-737280,0.0,-999.0,92,0.02,,,0.88,Wunderground v.1.15,2013-05-18 12:04:00,
2013-05-18 07:09:00,56.1,54.1,29.88,N/A,-737280,0.0,-999.0,93,0.03,,,0.88,Wunderground v.1.15,2013-05-18 12:09:00,
2013-05-18 07:14:00,56.1,54.1,29.88,N/A,-737280,0.0,-999.0,93,0.03,,,0.88,Wunderground v.1.15,2013-05-18 12:14:00,
2013-05-18 07:19:00,56.1,54.1,29.88,N/A,-737280,0.0,-999.0,93,0.03,,,0.88,Wunderground v.1.15,2013-05-18 12:19:00,
2013-05-18 07:24:00,55.9,53.9,29.89,N/A,-737280,0.0,-999.0,93,0.22,,,0.88,Wunderground v.1.15,2013-05-18 12:24:00,
2013-05-18 07:29:00,55.9,53.9,29.89,N/A,-737280,0.0,-999.0,93,0.22,,,0.88,Wunderground v.1.15,2013-05-18 12:29:00,
2013-05-18 07:34:00,55.9,53.9,29.89,N/A,-737280,0.0,-999.0,93,0.22,,,0.88,Wunderground v.1.15,2013-05-18 12:34:00,
2013-05-18 07:39:00,55.7,53.7,29.88,N/A,-737280,0.0,-999.0,93,0.38,,,0.88,Wunderground v.1.15,2013-05-18 12:39:00,
2013-05-18 07:44:00,55.7,53.7,29.88,N/A,-737280,0.0,-999.0,93,0.38,,,0.88,Wunderground v.1.15,2013-05-18 12:44:00,
2013-05-18 07:49:00,55.7,53.7,29.88,N/A,-737280,0.0,-999.0,93,0.38,,,0.88,Wunderground v.1.15,2013-05-18 12:49:00,
2013-05-18 07:54:00,55.5,53.5,29.89,N/A,-737280,0.0,-999.0,93,0.49,,,0.88,Wunderground v.1.15,2013-05-18 12:54:00,
2013-05-18 07:59:00,55.5,53.5,29.89,N/A,-737280,0.0,-999.0,93,0.49,,,0.88,Wunderground v.1.15,2013-05-18 12:59:00,
2013-05-18 08:04:00,55.5,53.5,29.89,N/A,-737280,0.0,-999.0,93,0.49,,,0.88,Wunderground v.1.15,2013-05-18 13:04:00,
2013-05-18 08:09:00,55.6,53.9,29.90,N/A,-737280,0.0,-999.0,94,0.54,,,0.88,Wunderground v.1.15,2013-05-18 13:09:00,
2013-05-18 08:14:00,55.6,53.9,29.90,N/A,-737280,0.0,-999.0,94,0.54,,,0.88,Wunderground v.1.15,2013-05-18 13:14:00,
2013-05-18 08:19:00,55.6,53.9,29.90,N/A,-737280,0.0,-999.0,94,0.54,,,0.88,Wunderground v.1.15,2013-05-18 13:19:00,
2013-05-18 08:24:00,55.5,53.8,29.85,N/A,-737280,0.0,-999.0,94,0.38,,,0.88,Wunderground v.1.15,2013-05-18 13:24:00,
2013-05-18 08:29:00,55.5,53.8,29.85,N/A,-737280,0.0,-999.0,94,0.38,,,0.88,Wunderground v.1.15,2013-05-18 13:29:00,
2013-05-18 08:34:00,55.5,53.8,29.85,N/A,-737280,0.0,-999.0,94,0.38,,,0.88,Wunderground v.1.15,2013-05-18 13:34:00,
2013-05-18 08:39:00,55.4,53.7,29.85,N/A,-737280,0.0,-999.0,94,0.24,,,0.88,Wunderground v.1.15,2013-05-18 13:39:00,
2013-05-18 08:44:00,55.4,53.7,29.85,N/A,-737280,0.0,-999.0,94,0.24,,,0.88,Wunderground v.1.15,2013-05-18 13:44:00,
2013-05-18 08:49:00,55.4,53.7,29.85,N/A,-737280,0.0,-999.0,94,0.24,,,0.88,Wunderground v.1.15,2013-05-18 13:49:00,
2013-05-18 08:54:00,55.6,53.9,29.86,N/A,-737280,0.0,-999.0,94,0.16,,,0.88,Wunderground v.1.15,2013-05-18 13:54:00,
2013-05-18 08:59:00,55.6,53.9,29.86,N/A,-737280,0.0,-999.0,94,0.16,,,0.88,Wunderground v.1.15,2013-05-18 13:59:00,
2013-05-18 09:04:00,55.6,53.9,29.86,N/A,-737280,0.0,-999.0,94,0.16,,,0.88,Wunderground v.1.15,2013-05-18 14:04:00,
2013-05-18 09:09:00,55.8,54.1,29.88,N/A,-737280,0.0,-999.0,94,0.12,,,0.88,Wunderground v.1.15,2013-05-18 14:09:00,
2013-05-18 09:14:00,55.8,54.1,29.88,N/A,-737280,0.0,-999.0,94,0.12,,,0.88,Wunderground v.1.15,2013-05-18 14:14:00,
2013-05-18 09:19:00,55.8,54.1,29.88,N/A,-737280,0.0,-999.0,94,0.12,,,0.88,Wunderground v.1.15,2013-05-18 14:19:00,
2013-05-18 09:24:00,55.9,54.2,29.89,N/A,-737280,0.0,-999.0,94,0.11,,,0.88,Wunderground v.1.15,2013-05-18 14:24:00,
2013-05-18 09:29:00,55.9,54.2,29.89,N/A,-737280,0.0,-999.0,94,0.11,,,0.88,Wunderground v.1.15,2013-05-18 14:29:00,
2013-05-18 09:34:00,55.9,54.2,29.89,N/A,-737280,0.0,-999.0,94,0.11,,,0.88,Wunderground v.1.15,2013-05-18 14:34:00,
2013-05-18 09:39:00,56.0,54.6,29.88,N/A,-737280,0.0,-999.0,95,0.16,,,0.88,Wunderground v.1.15,2013-05-18 14:39:00,
2013-05-18 09:44:00,56.0,54.6,29.88,N/A,-737280,0.0,-999.0,95,0.16,,,0.88,Wunderground v.1.15,2013-05-18 14:44:00,
2013-05-18 09:49:00,56.0,54.6,29.88,N/A,-737280,0.0,-999.0,95,0.16,,,0.88,Wunderground v.1.15,2013-05-18 14:49:00,
2013-05-18 09:54:00,56.3,54.9,29.84,N/A,-737280,0.0,-999.0,95,0.16,,,0.88,Wunderground v.1.15,2013-05-18 14:54:00,
2013-05-18 09:59:00,56.3,54.9,29.84,N/A,-737280,0.0,-999.0,95,0.16,,,0.88,Wunderground v.1.15,2013-05-18 14:59:00,
2013-05-18 10:04:00,56.3,54.9,29.84,N/A,-737280,0.0,-999.0,95,0.16,,,0.88,Wunderground v.1.15,2013-05-18 15:04:00,
2013-05-18 10:09:00,56.5,55.1,29.85,N/A,-737280,0.0,-999.0,95,0.17,,,0.88,Wunderground v.1.15,2013-05-18 15:09:00,
2013-05-18 10:14:00,56.5,55.1,29.85,N/A,-737280,0.0,-999.0,95,0.17,,,0.88,Wunderground v.1.15,2013-05-18 15:14:00,
2013-05-18 10:19:00,56.5,55.1,29.85,N/A,-737280,0.0,-999.0,95,0.17,,,0.88,Wunderground v.1.15,2013-05-18 15:19:00,
2013-05-18 10:24:00,56.9,55.5,29.84,N/A,-737280,0.0,-999.0,95,0.14,,,0.88,Wunderground v.1.15,2013-05-18 15:24:00,
2013-05-18 10:29:00,56.9,55.5,29.84,N/A,-737280,0.0,-999.0,95,0.14,,,0.88,Wunderground v.1.15,2013-05-18 15:29:00,
2013-05-18 10:34:00,56.9,55.5,29.84,N/A,-737280,0.0,-999.0,95,0.14,,,0.88,Wunderground v.1.15,2013-05-18 15:34:00,
2013-05-18 10:39:00,57.2,55.8,29.84,N/A,-737280,0.0,-999.0,95,0.07,,,0.88,Wunderground v.1.15,2013-05-18 15:39:00,
2013-05-18 10:44:00,57.2,55.8,29.84,N/A,-737280,0.0,-999.0,95,0.07,,,0.88,Wunderground v.1.15,2013-05-18 15:44:00,
2013-05-18 10:49:00,57.2,55.8,29.84,N/A,-737280,0.0,-999.0,95,0.07,,,0.88,Wunderground v.1.15,2013-05-18 15:49:00,
2013-05-18 10:54:00,57.2,55.8,29.85,N/A,-737280,0.0,-999.0,95,0.03,,,0.88,Wunderground v.1.15,2013-05-18 15:54:00,
2013-05-18 10:59:00,57.2,55.8,29.85,N/A,-737280,0.0,-999.0,95,0.03,,,0.88,Wunderground v.1.15,2013-05-18 15:59:00,
2013-05-18 11:04:00,57.2,55.8,29.85,N/A,-737280,0.0,-999.0,95,0.03,,,0.88,Wunderground v.1.15,2013-05-18 16:04:00,
2013-05-18 11:09:00,57.2,55.8,29.83,N/A,-737280,0.0,-999.0,95,0.00,,,0.88,Wunderground v.1.15,2013-05-18 16:09:00,
2013-05-18 11:14:00,57.2,55.8,29.83,N/A,-737280,0.0,-999.0,95,0.00,,,0.88,Wunderground v.1.15,2013-05-18 16:14:00,
2013-05-18 11:19:00,57.2,55.8,29.83,N/A,-737280,0.0,-999.0,95,0.00,,,0.88,Wunderground v.1.15,2013-05-18 16:19:00,
2013-05-18 11:24:00,58.3,56.9,29.82,N/A,-737280,0.0,-999.0,95,0.00,,,0.88,Wunderground v.1.15,2013-05-18 16:24:00,
2013-05-18 11:29:00,58.3,56.9,29.82,N/A,-737280,0.0,-999.0,95,0.00,,,0.88,Wunderground v.1.15,2013-05-18 16:29:00,
2013-05-18 11:34:00,58.3,56.9,29.82,N/A,-737280,0.0,-999.0,95,0.00,,,0.88,Wunderground v.1.15,2013-05-18 16:34:00,
2013-05-18 11:39:00,59.6,58.2,29.81,N/A,-737280,0.0,-999.0,95,0.00,,,0.88,Wunderground v.1.15,2013-05-18 16:39:00,
2013-05-18 11:44:00,59.6,58.2,29.81,N/A,-737280,0.0,-999.0,95,0.00,,,0.88,Wunderground v.1.15,2013-05-18 16:44:00,
2013-05-18 11:49:00,59.6,58.2,29.81,N/A,-737280,0.0,-999.0,95,0.00,,,0.88,Wunderground v.1.15,2013-05-18 16:49:00,
2013-05-18 11:54:00,61.8,60.1,29.81,N/A,-737280,0.0,-999.0,94,0.01,,,0.88,Wunderground v.1.15,2013-05-18 16:54:00,
2013-05-18 11:59:00,61.8,60.1,29.81,N/A,-737280,0.0,-999.0,94,0.01,,,0.88,Wunderground v.1.15,2013-05-18 16:59:00,
2013-05-18 12:04:00,61.8,60.1,29.81,N/A,-737280,0.0,-999.0,94,0.01,,,0.88,Wunderground v.1.15,2013-05-18 17:04:00,
2013-05-18 12:09:00,63.4,61.0,29.79,N/A,-737280,0.0,-999.0,92,0.01,,,0.88,Wunderground v.1.15,2013-05-18 17:09:00,
2013-05-18 12:14:00,63.4,61.0,29.79,N/A,-737280,0.0,-999.0,92,0.01,,,0.88,Wunderground v.1.15,2013-05-18 17:14:00,
2013-05-18 12:19:00,63.4,61.0,29.79,N/A,-737280,0.0,-999.0,92,0.01,,,0.88,Wunderground v.1.15,2013-05-18 17:19:00,
2013-05-18 12:24:00,65.4,61.8,29.79,N/A,-737280,0.0,-999.0,88,0.01,,,0.88,Wunderground v.1.15,2013-05-18 17:24:00,
2013-05-18 12:29:00,65.4,61.8,29.79,N/A,-737280,0.0,-999.0,88,0.01,,,0.88,Wunderground v.1.15,2013-05-18 17:29:00,
2013-05-18 12:34:00,65.4,61.8,29.79,N/A,-737280,0.0,-999.0,88,0.01,,,0.88,Wunderground v.1.15,2013-05-18 17:34:00,
2013-05-18 12:39:00,67.2,61.9,29.76,N/A,-737280,0.0,-999.0,83,0.01,,,0.88,Wunderground v.1.15,2013-05-18 17:39:00,
2013-05-18 12:44:00,67.2,61.9,29.76,N/A,-737280,0.0,-999.0,83,0.01,,,0.88,Wunderground v.1.15,2013-05-18 17:44:00,
2013-05-18 12:49:00,67.2,61.9,29.76,N/A,-737280,0.0,-999.0,83,0.01,,,0.88,Wunderground v.1.15,2013-05-18 17:49:00,
2013-05-18 12:54:00,68.0,62.6,29.76,N/A,-737280,0.0,-999.0,83,0.00,,,0.88,Wunderground v.1.15,2013-05-18 17:54:00,
2013-05-18 12:59:00,68.0,62.6,29.76,N/A,-737280,0.0,-999.0,83,0.00,,,0.88,Wunderground v.1.15,2013-05-18 17:59:00,
2013-05-18 13:04:00,68.0,62.6,29.76,N/A,-737280,0.0,-999.0,83,0.00,,,0.88,Wunderground v.1.15,2013-05-18 18:04:00,
2013-05-18 13:09:00,69.2,62.0,29.76,N/A,-737280,0.0,-999.0,78,0.00,,,0.88,Wunderground v.1.15,2013-05-18 18:09:00,
2013-05-18 13:14:00,69.2,62.0,29.76,N/A,-737280,0.0,-999.0,78,0.00,,,0.88,Wunderground v.1.15,2013-05-18 18:14:00,
2013-05-18 13:19:00,69.2,62.0,29.76,N/A,-737280,0.0,-999.0,78,0.00,,,0.88,Wunderground v.1.15,2013-05-18 18:19:00,
2013-05-18 13:24:00,70.9,63.0,29.75,N/A,-737280,0.0,-999.0,76,0.00,,,0.88,Wunderground v.1.15,2013-05-18 18:24:00,
2013-05-18 13:29:00,70.9,63.0,29.75,N/A,-737280,0.0,-999.0,76,0.00,,,0.88,Wunderground v.1.15,2013-05-18 18:29:00,
2013-05-18 13:34:00,70.9,63.0,29.75,N/A,-737280,0.0,-999.0,76,0.00,,,0.88,Wunderground v.1.15,2013-05-18 18:34:00,
2013-05-18 13:39:00,73.0,62.6,29.75,N/A,-737280,0.0,-999.0,70,0.00,,,0.88,Wunderground v.1.15,2013-05-18 18:39:00,
2013-05-18 13:44:00,73.0,62.6,29.75,N/A,-737280,0.0,-999.0,70,0.00,,,0.88,Wunderground v.1.15,2013-05-18 18:44:00,
2013-05-18 13:49:00,73.0,62.6,29.75,N/A,-737280,0.0,-999.0,70,0.00,,,0.88,Wunderground v.1.15,2013-05-18 18:49:00,
2013-05-18 13:54:00,74.1,62.9,29.75,N/A,-737280,0.0,-999.0,68,0.00,,,0.88,Wunderground v.1.15,2013-05-18 18:54:00,
2013-05-18 13:59:00,74.1,62.9,29.75,N/A,-737280,0.0,-999.0,68,0.00,,,0.88,Wunderground v.1.15,2013-05-18 18:59:00,
2013-05-18 14:04:00,74.1,62.9,29.75,N/A,-737280,0.0,-999.0,68,0.00,,,0.88,Wunderground v.1.15,2013-05-18 19:04:00,
2013-05-18 14:09:00,76.6,63.1,29.74,N/A,-737280,0.0,-999.0,63,0.00,,,0.88,Wunderground v.1.15,2013-05-18 19:09:00,
2013-05-18 14:14:00,76.6,63.1,29.74,N/A,-737280,0.0,-999.0,63,0.00,,,0.88,Wunderground v.1.15,2013-05-18 19:14:00,
2013-05-18 14:19:00,76.6,63.1,29.74,N/A,-737280,0.0,-999.0,63,0.00,,,0.88,Wunderground v.1.15,2013-05-18 19:19:00,
2013-05-18 14:24:00,77.4,63.4,29.74,N/A,-737280,0.0,-999.0,62,0.00,,,0.88,Wunderground v.1.15,2013-05-18 19:24:00,
2013-05-18 14:29:00,77.4,63.4,29.74,N/A,-737280,0.0,-999.0,62,0.00,,,0.88,Wunderground v.1.15,2013-05-18 19:29:00,
2013-05-18 14:34:00,77.4,63.4,29.74,N/A,-737280,0.0,-999.0,62,0.00,,,0.88,Wunderground v.1.15,2013-05-18 19:34:00,
2013-05-18 14:39:00,78.0,64.4,29.73,N/A,-737280,0.0,-999.0,63,0.00,,,0.88,Wunderground v.1.15,2013-05-18 19:39:00,
2013-05-18 14:44:00,78.0,64.4,29.73,N/A,-737280,0.0,-999.0,63,0.00,,,0.88,Wunderground v.1.15,2013-05-18 19:44:00,
2013-05-18 14:49:00,78.0,64.4,29.73,N/A,-737280,0.0,-999.0,63,0.00,,,0.88,Wunderground v.1.15,2013-05-18 19:49:00,
2013-05-18 14:54:00,79.3,64.2,29.73,N/A,-737280,0.0,-999.0,60,0.00,,,0.88,Wunderground v.1.15,2013-05-18 19:54:00,
2013-05-18 14:59:00,79.3,64.2,29.73,N/A,-737280,0.0,-999.0,60,0.00,,,0.88,Wunderground v.1.15,2013-05-18 19:59:00,
2013-05-18 15:04:00,79.3,64.2,29.73,N/A,-737280,0.0,-999.0,60,0.00,,,0.88,Wunderground v.1.15,2013-05-18 20:04:00,
2013-05-18 15:09:00,78.8,63.7,29.72,N/A,-737280,0.0,-999.0,60,0.00,,,0.88,Wunderground v.1.15,2013-05-18 20:09:00,
2013-05-18 15:14:00,78.8,63.7,29.72,N/A,-737280,0.0,-999.0,60,0.00,,,0.88,Wunderground v.1.15,2013-05-18 20:14:00,
2013-05-18 15:19:00,78.8,63.7,29.72,N/A,-737280,0.0,-999.0,60,0.00,,,0.88,Wunderground v.1.15,2013-05-18 20:19:00,
2013-05-18 15:24:00,78.7,62.7,29.72,N/A,-737280,0.0,-999.0,58,0.00,,,0.88,Wunderground v.1.15,2013-05-18 20:24:00,
2013-05-18 15:29:00,78.7,62.7,29.72,N/A,-737280,0.0,-999.0,58,0.00,,,0.88,Wunderground v.1.15,2013-05-18 20:29:00,
2013-05-18 15:34:00,78.7,62.7,29.72,N/A,-737280,0.0,-999.0,58,0.00,,,0.88,Wunderground v.1.15,2013-05-18 20:34:00,
2013-05-18 15:39:00,78.7,61.7,29.71,N/A,-737280,0.0,-999.0,56,0.00,,,0.88,Wunderground v.1.15,2013-05-18 20:39:00,
2013-05-18 15:49:00,78.7,61.7,29.71,N/A,-737280,0.0,-999.0,56,0.00,,,0.88,Wunderground v.1.15,2013-05-18 20:49:00,
2013-05-18 15:54:00,79.0,62.5,29.71,N/A,-737280,0.0,-999.0,57,0.00,,,0.88,Wunderground v.1.15,2013-05-18 20:54:00,
2013-05-18 15:59:00,79.0,62.5,29.71,N/A,-737280,0.0,-999.0,57,0.00,,,0.88,Wunderground v.1.15,2013-05-18 20:59:00,
2013-05-18 16:04:00,79.0,62.5,29.71,N/A,-737280,0.0,-999.0,57,0.00,,,0.88,Wunderground v.1.15,2013-05-18 21:04:00,
2013-05-18 16:09:00,78.6,62.1,29.71,N/A,-737280,0.0,-999.0,57,0.00,,,0.88,Wunderground v.1.15,2013-05-18 21:09:00,
2013-05-18 16:14:00,78.6,62.1,29.71,N/A,-737280,0.0,-999.0,57,0.00,,,0.88,Wunderground v.1.15,2013-05-18 21:14:00,
2013-05-18 16:19:00,78.6,62.1,29.71,N/A,-737280,0.0,-999.0,57,0.00,,,0.88,Wunderground v.1.15,2013-05-18 21:19:00,
2013-05-18 16:24:00,79.5,61.4,29.71,N/A,-737280,0.0,-999.0,54,0.00,,,0.88,Wunderground v.1.15,2013-05-18 21:24:00,
2013-05-18 16:29:00,79.5,61.4,29.71,N/A,-737280,0.0,-999.0,54,0.00,,,0.88,Wunderground v.1.15,2013-05-18 21:29:00,
2013-05-18 16:34:00,79.5,61.4,29.71,N/A,-737280,0.0,-999.0,54,0.00,,,0.88,Wunderground v.1.15,2013-05-18 21:34:00,
2013-05-18 16:39:00,80.5,62.3,29.71,N/A,-737280,0.0,-999.0,54,0.00,,,0.88,Wunderground v.1.15,2013-05-18 21:39:00,
2013-05-18 16:44:00,80.5,62.3,29.71,N/A,-737280,0.0,-999.0,54,0.00,,,0.88,Wunderground v.1.15,2013-05-18 21:44:00,
2013-05-18 16:49:00,80.5,62.3,29.71,N/A,-737280,0.0,-999.0,54,0.00,,,0.88,Wunderground v.1.15,2013-05-18 21:49:00,
2013-05-18 16:54:00,79.4,61.8,29.72,N/A,-737280,0.0,-999.0,55,0.00,,,0.88,Wunderground v.1.15,2013-05-18 21:54:00,
2013-05-18 16:59:00,79.4,61.8,29.72,N/A,-737280,0.0,-999.0,55,0.00,,,0.88,Wunderground v.1.15,2013-05-18 21:59:00,
2013-05-18 17:04:00,79.4,61.8,29.72,N/A,-737280,0.0,-999.0,55,0.00,,,0.88,Wunderground v.1.15,2013-05-18 22:04:00,
2013-05-18 17:09:00,79.5,61.9,29.72,N/A,-737280,0.0,-999.0,55,0.00,,,0.88,Wunderground v.1.15,2013-05-18 22:09:00,
2013-05-18 17:14:00,79.5,61.9,29.72,N/A,-737280,0.0,-999.0,55,0.00,,,0.88,Wunderground v.1.15,2013-05-18 22:14:00,
2013-05-18 17:19:00,79.5,61.9,29.72,N/A,-737280,0.0,-999.0,55,0.00,,,0.88,Wunderground v.1.15,2013-05-18 22:19:00,
2013-05-18 17:24:00,79.0,62.0,29.72,N/A,-737280,0.0,-999.0,56,0.00,,,0.88,Wunderground v.1.15,2013-05-18 22:24:00,
2013-05-18 17:29:00,79.0,62.0,29.72,N/A,-737280,0.0,-999.0,56,0.00,,,0.88,Wunderground v.1.15,2013-05-18 22:29:00,
2013-05-18 17:34:00,79.0,62.0,29.72,N/A,-737280,0.0,-999.0,56,0.00,,,0.88,Wunderground v.1.15,2013-05-18 22:34:00,
2013-05-18 17:39:00,78.6,62.6,29.72,N/A,-737280,0.0,-999.0,58,0.00,,,0.88,Wunderground v.1.15,2013-05-18 22:39:00,
2013-05-18 17:44:00,78.6,62.6,29.72,N/A,-737280,0.0,-999.0,58,0.00,,,0.88,Wunderground v.1.15,2013-05-18 22:44:00,
2013-05-18 17:49:00,78.6,62.6,29.72,N/A,-737280,0.0,-999.0,58,0.00,,,0.88,Wunderground v.1.15,2013-05-18 22:49:00,
2013-05-18 17:54:00,78.6,61.6,29.72,N/A,-737280,0.0,-999.0,56,0.00,,,0.88,Wunderground v.1.15,2013-05-18 22:54:00,
2013-05-18 17:59:00,78.6,61.6,29.72,N/A,-737280,0.0,-999.0,56,0.00,,,0.88,Wunderground v.1.15,2013-05-18 22:59:00,
2013-05-18 18:04:00,78.6,61.6,29.72,N/A,-737280,0.0,-999.0,56,0.00,,,0.88,Wunderground v.1.15,2013-05-18 23:04:00,
2013-05-18 18:09:00,78.9,62.4,29.72,N/A,-737280,0.0,-999.0,57,0.00,,,0.88,Wunderground v.1.15,2013-05-18 23:09:00,
2013-05-18 18:14:00,78.9,62.4,29.72,N/A,-737280,0.0,-999.0,57,0.00,,,0.88,Wunderground v.1.15,2013-05-18 23:14:00,
2013-05-18 18:19:00,78.9,62.4,29.72,N/A,-737280,0.0,-999.0,57,0.00,,,0.88,Wunderground v.1.15,2013-05-18 23:19:00,
2013-05-18 18:24:00,79.0,62.0,29.72,N/A,-737280,0.0,-999.0,56,0.00,,,0.88,Wunderground v.1.15,2013-05-18 23:24:00,
2013-05-18 18:29:00,79.0,62.0,29.72,N/A,-737280,0.0,-999.0,56,0.00,,,0.88,Wunderground v.1.15,2013-05-18 23:29:00,
2013-05-18 18:31:00,79.0,62.0,29.72,N/A,-737280,0.0,-999.0,56,0.00,,,0.88,Wunderground v.1.15,2013-05-18 23:31:00,
2013-05-18 18:34:00,79.0,62.0,29.72,N/A,-737280,0.0,-999.0,56,0.00,,,0.88,Wunderground v.1.15,2013-05-18 23:34:00,
2013-05-18 18:36:00,79.0,62.0,29.72,N/A,-737280,0.0,-999.0,56,0.00,,,0.88,Wunderground v.1.15,2013-05-18 23:36:00,
2013-05-18 18:39:00,78.8,61.8,29.72,N/A,-737280,0.0,-999.0,56,0.00,,,0.88,Wunderground v.1.15,2013-05-18 23:39:00,
2013-05-18 18:41:00,78.8,61.8,29.72,N/A,-737280,0.0,-999.0,56,0.00,,,0.88,Wunderground v.1.15,2013-05-18 23:41:00,
2013-05-18 18:44:00,78.8,61.8,29.72,N/A,-737280,0.0,-999.0,56,0.00,,,0.88,Wunderground v.1.15,2013-05-18 23:44:00,
2013-05-18 19:05:00,78.3,61.8,29.72,North,0,0.0,0.0,57,0.00,,,0.88,Wunderground v.1.15,2013-05-19 00:05:00,
2013-05-18 19:15:00,78.1,62.6,29.72,North,0,0.0,0.0,59,0.00,,,0.88,Wunderground v.1.15,2013-05-19 00:15:00,
2013-05-18 20:20:00,75.8,62.8,29.70,NNE,17,0.0,0.0,64,0.00,,,0.88,Wunderground v.1.15,2013-05-19 01:20:00,
2013-05-18 20:30:00,75.4,63.2,29.70,North,10,0.0,0.0,66,0.00,,,0.88,Wunderground v.1.15,2013-05-19 01:30:00,
2013-05-18 20:40:00,75.3,63.2,29.70,North,0,0.0,0.0,66,0.00,,,0.88,Wunderground v.1.15,2013-05-19 01:40:00,
2013-05-18 20:45:00,75.1,63.0,29.70,North,0,0.0,0.0,66,0.00,,,0.88,Wunderground v.1.15,2013-05-19 01:45:00,
2013-05-18 20:55:00,74.2,63.0,29.69,North,0,0.0,0.0,68,0.00,,,0.88,Wunderground v.1.15,2013-05-19 01:55:00,
2013-05-18 21:00:00,73.7,62.9,29.69,North,0,0.0,0.0,69,0.00,,,0.88,Wunderground v.1.15,2013-05-19 02:00:00,
2013-05-18 21:05:00,73.5,63.1,29.69,North,0,0.0,0.0,70,0.00,,,0.88,Wunderground v.1.15,2013-05-19 02:05:00,
2013-05-18 21:15:00,73.0,63.4,29.69,North,0,0.0,0.0,72,0.00,,,0.88,Wunderground v.1.15,2013-05-19 02:15:00,
2013-05-18 21:20:00,72.7,63.5,29.69,North,0,0.0,0.0,73,0.00,,,0.88,Wunderground v.1.15,2013-05-19 02:20:00,
2013-05-18 21:30:00,72.0,63.6,29.69,North,0,0.0,0.0,75,0.00,,,0.88,Wunderground v.1.15,2013-05-19 02:30:00,
2013-05-18 21:35:00,71.8,63.8,29.69,North,0,0.0,0.0,76,0.00,,,0.88,Wunderground v.1.15,2013-05-19 02:35:00,
2013-05-18 21:45:00,71.3,63.7,29.69,North,0,0.0,0.0,77,0.00,,,0.88,Wunderground v.1.15,2013-05-19 02:45:00,
2013-05-18 21:55:00,71.1,63.9,29.69,North,0,0.0,0.0,78,0.00,,,0.88,Wunderground v.1.15,2013-05-19 02:55:00,
2013-05-18 22:00:00,70.9,63.7,29.69,North,0,0.0,0.0,78,0.00,,,0.88,Wunderground v.1.15,2013-05-19 03:00:00,
2013-05-18 22:05:00,70.9,63.7,29.69,North,0,0.0,0.0,78,0.00,,,0.88,Wunderground v.1.15,2013-05-19 03:05:00,
2013-05-18 22:15:00,70.8,63.6,29.69,North,0,0.0,0.0,78,0.00,,,0.88,Wunderground v.1.15,2013-05-19 03:15:00,
2013-05-18 22:20:00,70.8,63.6,29.69,North,0,0.0,0.0,78,0.00,,,0.88,Wunderground v.1.15,2013-05-19 03:20:00,
2013-05-18 22:30:00,70.6,63.4,29.69,North,0,0.0,0.0,78,0.00,,,0.88,Wunderground v.1.15,2013-05-19 03:30:00,
2013-05-18 22:35:00,70.6,63.4,29.69,North,0,0.0,0.0,78,0.00,,,0.88,Wunderground v.1.15,2013-05-19 03:35:00,
2013-05-18 22:45:00,70.6,63.4,29.69,North,0,0.0,0.0,78,0.00,,,0.88,Wunderground v.1.15,2013-05-19 03:45:00,
2013-05-18 22:55:00,70.8,63.6,29.68,North,0,0.0,0.0,78,0.00,,,0.88,Wunderground v.1.15,2013-05-19 03:55:00,
2013-05-18 23:05:00,70.8,63.6,29.68,North,0,0.0,0.0,78,0.00,,,0.88,Wunderground v.1.15,2013-05-19 04:05:00,
2013-05-18 23:15:00,70.4,63.2,29.68,North,0,0.0,0.0,78,0.00,,,0.88,Wunderground v.1.15,2013-05-19 04:15:00,
2013-05-18 23:25:00,70.4,63.2,29.68,North,0,0.0,0.0,78,0.00,,,0.88,Wunderground v.1.15,2013-05-19 04:25:00,
2013-05-18 23:35:00,70.1,62.9,29.69,North,0,0.0,0.0,78,0.00,,,0.88,Wunderground v.1.15,2013-05-19 04:35:00,
2013-05-18 23:40:00,70.1,63.3,29.69,North,0,0.0,0.0,79,0.00,,,0.88,Wunderground v.1.15,2013-05-19 04:40:00,
2013-05-18 23:50:00,70.1,62.9,29.67,North,0,0.0,0.0,78,0.00,,,0.88,Wunderground v.1.15,2013-05-19 04:50:00,
2013-05-18 23:55:00,70.1,62.9,29.67,North,0,0.0,0.0,78,0.00,,,0.88,Wunderground v.1.15,2013-05-19 04:55:00,